VOI1850 MMGL-KSEA

Flight info

Callsign VOI1850
Flight time N/A
Altitude 36000
Route SEDEM1B SEDEM UJ3 MZT DCT VYLLA DCT CEBIL DCT TOTEC DCT PXR J92 DRK DCT ILC DCT DRSIE DCT PSNIP DCT STUNN DCT PDT CHINS5
Aircraft A20N/M-SDE2E3FGHIRWXY/S

Departure

Time 2026-05-03 23:13
Airport Guadalajara International Airport (MMGL)

Arrival

Time N/A
Airport Seattle–Tacoma International Airport (KSEA)
Time Latitude Longitude Altitude Speed Heading
2026-05-03 23:13 20.64735 -103.52153 11808 ft 353 kts 325°
2026-05-03 23:13 20.66661 -103.53776 12436 ft 352 kts 318°
2026-05-03 23:14 20.68509 -103.55540 12944 ft 356 kts 317°
2026-05-03 23:14 20.70333 -103.57303 13452 ft 360 kts 317°
2026-05-03 23:14 20.72217 -103.59109 13981 ft 362 kts 317°
2026-05-03 23:14 20.74110 -103.60906 14506 ft 365 kts 317°
2026-05-03 23:15 20.76018 -103.62706 15010 ft 367 kts 318°
2026-05-03 23:15 20.77933 -103.64503 15505 ft 370 kts 318°
2026-05-03 23:15 20.79867 -103.66313 16016 ft 372 kts 318°
2026-05-03 23:15 20.81830 -103.68150 16537 ft 373 kts 319°
2026-05-03 23:16 20.83783 -103.69975 17015 ft 375 kts 319°
2026-05-03 23:16 20.85770 -103.71833 17473 ft 378 kts 319°
2026-05-03 23:16 20.87730 -103.73664 17961 ft 379 kts 319°
2026-05-03 23:16 20.89716 -103.75520 18440 ft 380 kts 319°
2026-05-03 23:17 20.91721 -103.77396 18875 ft 382 kts 319°
2026-05-03 23:17 20.93713 -103.79260 19302 ft 384 kts 319°
2026-05-03 23:17 20.95750 -103.81168 19726 ft 385 kts 319°
2026-05-03 23:17 20.97745 -103.83036 20140 ft 387 kts 319°
2026-05-03 23:18 20.99798 -103.84962 20575 ft 388 kts 319°
2026-05-03 23:18 21.01805 -103.86844 20979 ft 389 kts 319°
2026-05-03 23:18 21.03870 -103.88780 21374 ft 391 kts 319°
2026-05-03 23:18 21.05905 -103.90690 21765 ft 393 kts 319°
2026-05-03 23:19 21.07967 -103.92625 22181 ft 394 kts 319°
2026-05-03 23:19 21.10026 -103.94582 22590 ft 395 kts 317°
2026-05-03 23:19 21.12011 -103.96661 22987 ft 398 kts 314°
2026-05-03 23:19 21.13934 -103.98775 23391 ft 399 kts 314°
2026-05-03 23:20 21.15872 -104.00919 23792 ft 401 kts 314°
2026-05-03 23:20 21.17826 -104.03084 24207 ft 402 kts 314°
2026-05-03 23:20 21.19758 -104.05225 24592 ft 404 kts 314°
2026-05-03 23:20 21.21712 -104.07387 24988 ft 405 kts 314°
2026-05-03 23:21 21.23700 -104.09589 25341 ft 407 kts 314°
2026-05-03 23:21 21.25649 -104.11750 25687 ft 409 kts 314°
2026-05-03 23:21 21.27644 -104.13963 26045 ft 411 kts 314°
2026-05-03 23:21 21.29639 -104.16177 26384 ft 413 kts 314°
2026-05-03 23:22 21.33626 -104.20604 27072 ft 416 kts 313°
2026-05-03 23:22 21.35658 -104.22858 27409 ft 417 kts 313°
2026-05-03 23:22 21.37688 -104.25110 27727 ft 419 kts 313°
2026-05-03 23:23 21.39697 -104.27338 28112 ft 419 kts 313°
2026-05-03 23:23 21.41715 -104.29582 28552 ft 417 kts 313°
2026-05-03 23:23 21.43715 -104.31804 29021 ft 414 kts 313°
2026-05-03 23:23 21.45710 -104.34023 29446 ft 411 kts 313°
2026-05-03 23:24 21.47710 -104.36246 29841 ft 410 kts 313°
2026-05-03 23:24 21.49667 -104.38424 30205 ft 409 kts 313°
2026-05-03 23:24 21.51648 -104.40627 30577 ft 407 kts 313°
2026-05-03 23:24 21.53600 -104.42804 30940 ft 405 kts 313°
2026-05-03 23:25 21.55543 -104.44971 31275 ft 404 kts 313°
2026-05-03 23:25 21.57508 -104.47160 31610 ft 402 kts 313°
2026-05-03 23:25 21.59440 -104.49316 31927 ft 401 kts 313°
2026-05-03 23:25 21.61378 -104.51478 32251 ft 399 kts 313°
2026-05-03 23:26 21.63282 -104.53603 32563 ft 397 kts 313°
2026-05-03 23:26 21.65203 -104.55750 32828 ft 397 kts 313°
2026-05-03 23:26 21.67124 -104.57896 33118 ft 396 kts 313°
2026-05-03 23:26 21.69003 -104.59998 33413 ft 394 kts 312°